Location: Kansas State University
(39.1938°N, 96.5858°W)
Time: 14:22:43
(UTC-05:00)

Daily predictions for brighter satellites

Satellite Brightness Start Highest point End
(mag) Time Altitude Azimuth Time Altitude Azimuth Time Altitude Azimuth
Cosmos 2084 4.1 21:23:45 10° SW 21:27:43 56° NW 21:31:31 10° NNE
Cosmos 1570 Rocket 4.1 21:22:43 10° NNW 21:28:01 69° ENE 21:33:14 10° SSE
Okean 3 Rocket 3.6 21:24:00 10° S 21:28:27 64° E 21:32:52 10° NNE
Spot 1 4.2 21:26:42 10° SSE 21:30:44 57° ENE 21:34:55 10° N
USA 32 4.1 21:26:33 10° S 21:31:48 87° E 21:37:05 10° N
SAR-Lupe-4 4.1 21:29:04 10° SE 21:32:29 44° ENE 21:35:54 10° N
Cosmos 1766 Rocket 4.3 21:29:54 10° SSE 21:33:46 33° E 21:37:40 10° NNE
Helios 1A 2.9 21:32:46 10° SSE 21:36:54 79° ENE 21:41:04 10° N
USA 234 4.2 21:32:12 10° ENE 21:37:20 24° ESE 21:42:26 10° S
Meteor 1-21 Rocket 4.3 21:34:34 10° S 21:40:07 60° E 21:45:36 10° NNE
Cosmos 2237 Rocket 4.1 21:35:38 10° NW 21:40:17 27° WSW 21:44:55 10° SSW
Cosmos 1356 Rocket 3.5 21:37:26 10° S 21:41:39 65° E 21:45:55 10° NNE
Cosmos 1242 Rocket 2.7 21:38:37 10° N 21:42:17 58° ENE 21:45:56 10° SSE
CZ-4B DEB 2.6 21:39:23 10° SSE 21:42:19 64° ENE 21:45:16 10° N
Cosmos 1674 2.6 21:41:22 10° S 21:45:06 75° E 21:48:52 10° N
ERS-1 Rocket 3.4 21:42:08 10° SE 21:46:56 47° ENE 21:51:46 10° N
Cosmos 1603 4.1 21:45:14 10° NNW 21:50:45 50° ENE 21:55:40 13° SE
RESURS DK-1 3.0 21:47:14 10° NNW 21:51:14 44° ENE 21:54:38 14° SE
ARGOS 4.1 21:46:39 11° SE 21:51:19 34° ENE 21:56:08 10° N
SAR-Lupe-1 4.1 21:48:31 10° SSE 21:52:05 68° ENE 21:55:41 10° N
Cosmos 1867 4.4 21:48:19 10° SW 21:53:39 56° NW 21:59:02 10° NNE
Cosmos 220 Rocket 4.3 21:58:37 10° S 22:02:51 47° ESE 22:07:04 10° NNE
Resurs 01 Rocket 4.2 22:00:11 10° SW 22:03:10 18° W 22:06:09 10° NW
Cosmos 1943 4.2 21:58:29 10° N 22:03:34 33° ENE 22:07:41 14° ESE
Cosmos 1939 Rocket 3.9 21:59:45 10° S 22:03:35 44° W 22:07:30 10° NNW
Cosmos 1908 3.5 21:59:49 10° NNW 22:03:41 68° W 22:07:29 10° S
Cosmos 371 Rocket 3.9 21:59:24 10° N 22:03:58 40° ENE 22:07:23 16° SE
Cosmos 2228 Rocket 4.1 22:00:14 10° NNE 22:04:22 32° ENE 22:07:15 17° SE
SL-16 R/B 3.3 22:01:48 10° NW 22:07:03 40° WSW 22:12:15 10° S
KORONAS-FOTON 3.8 22:05:27 10° S 22:09:14 81° W 22:13:02 10° N
Cosmos 1459 Rocket 4.1 22:06:34 10° N 22:12:51 80° W 22:19:01 10° S
ERBS 2.7 22:13:17 10° NW 22:16:37 52° NE 22:18:29 23° ESE
GPS 2-05 Rocket1 3.2 22:13:56 10° WSW 22:16:47 34° S 22:17:46 27° SE
H-2A R/B 2.8 22:17:23 18° SE 22:20:52 40° ENE 22:25:56 10° N
H-2A ROCKET BODY 3.4 22:23:16 10° SSW 22:26:32 23° SE 22:34:36 10° E
SPOT 5 3.0 22:24:13 20° SSE 22:27:31 64° ENE 22:32:35 10° N
Lacrosse 5 1.9 22:22:54 10° NW 22:27:58 75° SW 22:31:05 23° SSE
Abrixas rocket 2.4 22:25:12 10° NW 22:28:26 62° NNE 22:29:56 28° ESE
SL-08 RB Rocket 3.9 22:25:51 22° SE 22:28:37 57° ENE 22:33:09 10° N
Cosmos 2151 3.6 22:27:50 24° SE 22:29:43 37° E 22:33:43 10° NNE
YAOGAN 6 4.4 22:27:15 10° SSW 22:30:26 28° W 22:33:41 10° NW
Cosmos 1408 Rocket 4.2 22:27:49 10° SSW 22:32:01 53° W 22:36:16 10° N
Cosmos 2123 Rocket 3.9 22:26:22 10° S 22:32:33 81° E 22:38:46 10° N
Meteor 2-10 4.2 22:27:00 10° N 22:32:39 71° E 22:36:32 21° SSE
NOAA 11 4.4 22:29:13 14° S 22:33:54 70° WSW 22:39:20 10° NNW
Cosmos 1626 3.0 22:38:04 29° ESE 22:38:39 31° E 22:41:58 10° NNE
MetOp-B 4.3 22:34:38 17° S 22:38:48 74° WSW 22:44:11 10° NNW
Cosmos 1356 3.7 22:38:51 36° SE 22:39:46 47° E 22:43:09 10° NNE
Cosmos 1703 4.1 22:39:14 29° ESE 22:40:05 33° E 22:43:41 10° NNE
Cosmos 1726 2.7 22:39:39 10° NNW 22:43:15 54° W 22:45:24 22° SSW
Cosmos 1354 Rocket 4.2 22:45:33 25° SSE 22:48:18 50° ESE 22:53:22 10° NNE
Cosmos 1814 Rocket 4.2 22:43:22 10° NNW 22:48:41 72° WSW 22:51:48 25° S
Tiangong 1 1.1 22:46:21 10° WNW 22:49:08 60° NNE 22:49:35 49° ENE
Terra 2.6 22:50:32 27° ESE 22:52:16 37° ENE 22:56:37 10° N
Abrixas 3.5 22:50:28 10° W 22:53:03 41° NNW 22:55:39 10° NE
Meteor 1-11 4.2 22:48:57 19° S 22:53:12 77° E 22:59:01 10° NNE
Cosmos 1500 Rocket 3.5 22:50:41 24° S 22:53:21 88° E 22:57:49 10° N
Cosmos 1763 Rocket 3.4 22:48:53 10° NNW 22:53:59 82° WSW 22:56:30 30° SSE
Cosmos 841 Rocket 3.4 22:49:02 10° NNW 22:54:17 78° ENE 22:56:41 33° SSE
Cosmos 1725 Rocket 4.1 22:50:17 10° N 22:56:31 74° W 23:00:51 21° S
Cosmos 1486 Rocket 4.3 22:52:33 10° SSW 22:57:47 67° WNW 23:03:05 10° NNE
Cosmos 2263 Rocket 2.1 22:53:20 10° SSW 22:58:54 89° WNW 23:04:30 10° NNE
Cosmos 1300 3.6 22:55:47 10° NNW 22:59:27 45° W 23:01:19 25° SSW
Cosmos 304 Rocket 4.3 22:55:45 10° N 23:00:22 45° ENE 23:01:55 34° ESE
IGS 5A 4.0 23:02:53 37° ESE 23:03:46 42° ENE 23:07:43 10° N
CARTOSAT-1 4.0 23:03:22 38° ESE 23:04:26 47° ENE 23:08:36 10° N
DMSP B5D2-2 4.0 23:04:36 10° NNE 23:09:51 79° ESE 23:12:27 31° S
Meteor 1-27 4.2 23:04:54 10° N 23:10:44 88° W 23:13:25 33° S
Cosmos 1805 Rocket 4.0 23:12:38 40° ESE 23:12:55 40° E 23:16:57 10° NNE
Cosmos 1151 Rocket 3.2 23:10:33 10° NNW 23:14:55 68° W 23:16:22 40° SSW
SPOT 1/Viking Rocket 3.9 23:13:42 30° S 23:16:11 60° W 23:21:17 10° NNW
Cosmos 1633 Rocket 4.5 23:16:57 23° E 23:16:57 23° E 23:20:05 10° NE
SWAS 4.3 23:18:52 54° S 23:19:43 72° ESE 23:24:02 10° NNE
USA 234 3.3 23:14:12 10° NE 23:20:45 84° NW 23:27:18 10° SW
Cosmos 1464 Rocket 4.4 23:16:24 10° N 23:22:20 47° ENE 23:24:20 36° SE
H-2A R/B 2.1 23:24:41 54° ESE 23:25:17 60° ENE 23:29:28 10° N
Delta 2 Rocket 4.1 23:21:56 10° WSW 23:27:37 62° S 23:29:26 41° ESE
Cosmos 836 Rocket 4.4 23:23:11 10° NNW 23:28:31 88° ENE 23:30:01 49° SSE
Cosmos 2058 3.7 23:26:59 29° SW 23:28:47 48° W 23:32:53 10° N
Spot 4 4.4 23:29:02 40° ESE 23:29:58 45° ENE 23:34:37 10° N
Cosmos 1844 Rocket 3.3 23:31:42 35° ESE 23:31:42 35° ESE 23:36:41 10° NE
CZ-4C R/B 2.1 23:31:21 49° SSE 23:32:06 54° ESE 23:37:42 10° NE
Cosmos 1455 2.0 23:28:24 10° N 23:32:16 86° ENE 23:32:20 85° ESE
Cosmos 540 Rocket 3.4 23:42:13 10° NNW 23:47:22 74° WSW 23:48:19 57° S
Cosmos 1943 4.3 23:42:31 10° NW 23:47:33 34° WSW 23:49:30 27° SW
CZ-4B R/B 3.5 23:43:38 10° NNE 23:48:54 70° ESE 23:49:41 60° SSE
Cosmos 968 Rocket 3.4 23:52:31 61° SE 23:52:57 64° ESE 23:58:10 10° NNE
